This demonstration page uses our WeatherBlox Daily Observations layout. Learn more.

Left ArrowRight Arrow

Hourly Observations for August 4, 2015

Temp ( °F °C ) Dew Point ( °F °C ) Humidity (%) Winds ( mph kmh ) Pressure ( in mb ) Visibility ( mi km ) Precip ( " mm )
12:54 am 00:54 Mostly Cloudy with Thunderstorms 74 23.3 64 17.8 71 71 NNE 6 9 29.95 1014 10 16.0934 0 0
1:34 am 01:34 Cloudy with Nearby Thunderstorms 73 23 64 18 74 74 E 10 17 29.94 1014 10 16.0934 0 0
1:45 am 01:45 Mostly Cloudy with Thunderstorms 72 22.2 64 17.8 76 76 E 10 17 29.94 1014 10 16.0934 0 0
1:54 am 01:54 Mostly Cloudy with Thunderstorms 72 22.2 64 17.8 76 76 E 7 11 29.93 1014 10 16.0934 0 0
2:13 am 02:13 Cloudy with Nearby Thunderstorms 72 22.2 64 17.8 76 76 ESE 12 19 29.94 1014 10 16.0934 0 0
2:54 am 02:54 Cloudy with Nearby Thunderstorms 71 21.7 65 18.3 81 81 E 9 15 29.91 1013 10 16.0934 0 0
3:15 am 03:15 Cloudy with Thunderstorms 70 21 64 18 83 83 ESE 9 15 29.91 1013 10 16.0934 0 0
3:37 am 03:37 Cloudy with Nearby Thunderstorms 72 22 64 18 78 78 ESE 7 11 29.91 1013 10 16.0934 0 0
3:54 am 03:54 Mostly Cloudy with Nearby Thunderstorms 70 21.1 65 18.3 84 84 ESE 9 15 29.9 1013 10 16.0934 0 0
4:07 am 04:07 Mostly Cloudy 70 21 64 18 83 83 ESE 8 13 29.91 1013 10 16.0934 0 0
4:54 am 04:54 Mostly Clear 70 21.1 65 18.3 84 84 NE 8 13 29.91 1013 10 16.0934 0 0
5:24 am 05:24 Mostly Clear with Nearby Thunderstorms 68 20 64 18 88 88 NNE 10 17 29.94 1014 10 16.0934 0 0
5:41 am 05:41 Mostly Cloudy with Nearby Thunderstorms 70 21.1 64 17.8 82 82 NNE 22 35 29.94 1014 10 16.0934 0 0
5:50 am 05:50 Cloudy 72 22 64 18 78 78 NE 16 26 29.97 1015 10 16.0934 0 0
5:54 am 05:54 Cloudy 71 21.7 64 17.8 79 79 NNE 16 26 29.96 1014 10 16.0934 0 0
6:54 am 06:54 Cloudy 71 21.7 63 17.2 76 76 SE 9 15 29.94 1014 10 16.0934 0 0
7:26 am 07:26 Cloudy 72 22 63 17 73 73 N 20 31 30 1016 10 16.0934 0 0
7:29 am 07:29 Cloudy with Thunderstorms 70 21.1 63 17.2 79 79 N 15 24 30 1016 10 16.0934 0 0
7:50 am 07:50 Cloudy with Nearby Thunderstorms 66 19 64 18 94 94 NE 12 19 29.97 1015 7 11.26538 0 0
7:54 am 07:54 Cloudy with Nearby Thunderstorms 67 19.4 64 17.8 91 91 NNE 12 19 29.98 1015 8 12.87472 0.05 1.27
8:03 am 08:03 Cloudy with Light Thunderstorms 67 19.4 65 18.3 93 93 ENE 8 13 30 1016 10 16.0934 0 0.0254
8:52 am 08:52 Mostly Cloudy with Nearby Thunderstorms 66 19 64 18 94 94 NNW 12 19 30.03 1017 5 8.0467 0.07 1.778
8:54 am 08:54 Mostly Cloudy with Nearby Thunderstorms 67 19.4 65 18.3 93 93 NNW 10 17 30.02 1017 6 9.65604 0.07 1.778
9:09 am 09:09 Mostly Cloudy with Light Thunderstorms 67 19.4 65 18.3 93 93 ENE 6 9 30.03 1017 5 8.0467 0.01 0.254
9:30 am 09:30 Cloudy with Nearby Thunderstorms 66 19 66 19 100 100 E 13 20 29.97 1015 6 9.65604 0 0
9:54 am 09:54 Sunny 68 20 66 18.9 93 93 ESE 5 7 29.99 1016 9 14.48406 0.05 1.27
10:33 am 10:33 Partly Cloudy 70 21 66 19 88 88 E 8 13 30 1016 9 14.48406 0 0
10:54 am 10:54 Mostly Sunny 73 22.8 69 20.6 87 87 E 10 17 29.98 1015 9 14.48406 0 0
11:54 am 11:54 Sunny 77 25 68 20 74 74 ESE 15 24 29.95 1014 10 16.0934 0 0
12:54 pm 12:54 Sunny 80 26.7 67 19.4 64 64 SE 12 19 29.94 1014 10 16.0934 0 0
1:54 pm 13:54 Sunny 83 28.3 67 19.4 59 59 SSE 17 28 29.91 1013 10 16.0934 0 0
2:54 pm 14:54 Sunny 85 29.4 67 19.4 55 55 SE 14 22 29.88 1012 10 16.0934 0 0
3:54 pm 15:54 Sunny 87 30.6 69 20.6 55 55 S 18 30 29.88 1012 10 16.0934 0 0
4:54 pm 16:54 Sunny 87 30.6 67 19.4 51 51 S 18 30 29.87 1012 10 16.0934 0 0
5:54 pm 17:54 Partly Cloudy 84 28.9 68 20 59 59 SSE 8 13 29.89 1012 10 16.0934 0 0
6:54 pm 18:54 Cloudy 82 27.8 71 21.7 69 69 SSW 13 20 29.89 1012 9 14.48406 0 0
6:59 pm 18:59 Cloudy with Thunderstorms 82 27.8 70 21.1 67 67 SSW 10 17 29.85 1011 10 16.0934 0 0
7:40 pm 19:40 Partly Cloudy with Nearby Thunderstorms 75 24 70 21 83 83 N 8 13 29.88 1012 10 16.0934 0 0
7:54 pm 19:54 Partly Cloudy 75 23.9 69 20.6 82 82 NE 7 11 29.93 1013 10 16.0934 0 0
8:01 pm 20:01 Mostly Cloudy with Nearby Thunderstorms 74 23.3 69 20.6 85 85 NNE 3 6 29.94 1014 10 16.0934 0 0
8:20 pm 20:20 Cloudy 73 23 70 21 89 89 ENE 10 17 29.94 1014 10 16.0934 0 0
8:54 pm 20:54 Partly Cloudy 74 23.3 70 21.1 88 88 ESE 7 11 29.93 1014 10 16.0934 0 0
9:54 pm 21:54 Clear 75 23.9 70 21.1 84 84 E 8 13 29.93 1014 10 16.0934 0 0
10:54 pm 22:54 Clear 73 22.8 68 20 84 84 SSE 6 9 29.93 1014 10 16.0934 0 0
11:54 pm 23:54 Clear 73 22.8 68 20 84 84 SSE 3 6 29.93 1013 10 16.0934 0 0

Powered by AerisWeather